Flag for Canada

Past Weather in Richmond Hill, Ontario, Canada — Yesterday and Last 2 Weeks

Now
84 °F

Sunny.


Feels Like: 94 °F
Forecast: 92 / 71 °F
Wind: 12 mph from East

Location: Toronto Island Airport

Current Time: Jul 9, 2020 at 5:05:40 pm

Latest Report: Jul 9, 2020 at 4:00 pm


Visibility: 9 mi

Pressure: 29.88 "Hg

Humidity: 79%

Dew Point: 77 °F

Location of Richmond HillLocation

Past Weather in Richmond Hill — Graph

°F

Richmond Hill Temperature Yesterday

Maximum temperature yesterday: 86 °F (at 2:00 pm)
Minimum temperature yesterday: 72 °F (at 3:34 pm)
Average temperature yesterday: 78 °F

High & Low Weather Summary for the Past Weeks

 TemperatureHumidityPressure
High93 °F (Jul 2, 4:00 pm)100% (Jun 27, 6:14 am)30.04 "Hg (Jun 27, 6:14 am)
Low52 °F (Jun 24, 10:00 pm)30% (Jul 2, 6:00 pm)29.64 "Hg (Jun 27, 5:00 pm)
Average73 °F70%29.89 "Hg
* Reported Jun 24 3:00 pm — Jul 9 3:00 pm, Richmond Hill. Weather by CustomWeather, © 2020

Note: Actual official high and low records may vary slightly from our data, if they occured in-between our weather recording intervals... More about our weather records

Richmond Hill Weather History for the Previous 24 Hours

Scroll right to see more
 ConditionsComfort  
Time TempWeatherWind HumidityBarometerVisibility
3:00 pm
Thu, Jul 9
88 °FSunny.6 mph62%29.88 "Hg9 mi
2:00 pm88 °FSunny.5 mph62%29.90 "Hg9 mi
1:00 pm84 °FSunny.3 mph70%29.92 "Hg9 mi
12:00 pm81 °FSunny.5 mph84%29.92 "Hg9 mi
11:00 am81 °FSunny.5 mph84%29.92 "Hg9 mi
10:00 am79 °FSunny.7 mph84%29.93 "Hg9 mi
9:00 am77 °FSunny.6 mph79%29.93 "Hg9 mi
8:00 am77 °FSunny.2 mph79%29.93 "Hg9 mi
7:00 am73 °FSunny.2 mph89%29.93 "Hg9 mi
6:19 am72 °FFog.3 mph94%29.92 "Hg6 mi
6:05 am72 °FFog.5 mph94%29.92 "Hg5 mi
5:45 am72 °FFog.3 mph94%29.90 "Hg6 mi
5:14 am72 °FFog.3 mph94%29.90 "Hg5 mi
5:00 am73 °FClear.5 mph89%29.89 "Hg9 mi
4:00 am75 °FClear.3 mph83%29.89 "Hg9 mi
3:00 am73 °FClear.2 mph94%29.89 "Hg9 mi
2:00 am75 °FClear.No wind89%29.89 "Hg9 mi
1:00 am73 °FClear.No wind89%29.89 "Hg9 mi
12:00 am75 °FClear.No wind89%29.90 "Hg9 mi
11:00 pm
Wed, Jul 8
77 °FClear.No wind83%29.90 "Hg9 mi
10:00 pm77 °FClear.3 mph79%29.88 "Hg9 mi
9:00 pm77 °FClear.3 mph79%29.86 "Hg9 mi
8:00 pm79 °FSunny.6 mph74%29.85 "Hg9 mi
7:00 pm79 °FSunny.5 mph84%29.85 "Hg9 mi
6:00 pm86 °FPartly sunny.No wind55%29.86 "Hg9 mi
5:00 pm86 °FSunny.3 mph55%29.87 "Hg9 mi
Weather by CustomWeather, © 2020

See weather overview